Powrót do katalogu

CZ-6A DEB

AktywnyPO
NORAD 60800·DEBRIS·🇨🇳 China

Wystrzelony Aug 6, 2024 z Taiyuan Satellite Launch Center

Loading…

Następne Przeloty (najbliższe 24 godziny)

TLE

ŚwieżeSource: Space-Track

Epoka: Sep 14, 2026, 17:37 UTC

1 60800U 24140GB  26257.73435131  .00000156  00000-0  75237-4 0  9994
2 60800  88.9971 265.7832 0073402 276.2529  83.0300 14.12685251107827

Śledź CZ-6A DEB w czasie rzeczywistym z AllMySat

Download on the App Store